Previsão horária em Cendrowice

Hoje, 25 Julho, Domingo

Tempo Temperatura Precipitação Vento Pressão Humidade
00:00 +20°C° 0 mm 3 m/s 750 mmHg 67%
01:00 +20°C° 0 mm 3 m/s 750 mmHg 69%
02:00 +20°C° 0 mm 3 m/s 750 mmHg 70%
03:00 +20°C° 0 mm 3 m/s 749 mmHg 71%
04:00 +20°C° 0 mm 3 m/s 749 mmHg 73%
05:00 +21°C° 0 mm 3 m/s 749 mmHg 70%
06:00 +21°C° 0 mm 4 m/s 750 mmHg 68%
07:00 +22°C° 0 mm 4 m/s 750 mmHg 66%
08:00 +25°C° 0 mm 4 m/s 750 mmHg 60%
09:00 +27°C° 0 mm 4 m/s 750 mmHg 54%
10:00 +28°C° 0 mm 5 m/s 750 mmHg 48%
11:00 +29°C° 0 mm 5 m/s 750 mmHg 45%
12:00 +30°C° 0 mm 5 m/s 750 mmHg 42%
13:00 +32°C° 0 mm 5 m/s 750 mmHg 39%
14:00 +30°C° 0 mm 5 m/s 749 mmHg 41%
15:00 +29°C° 0 mm 4 m/s 749 mmHg 42%
16:00 +29°C° 0 mm 4 m/s 749 mmHg 43%
17:00 +27°C° 0 mm 4 m/s 749 mmHg 49%
18:00 +26°C° 0 mm 3 m/s 749 mmHg 55%
19:00 +25°C° 0 mm 3 m/s 749 mmHg 61%
20:00 +24°C° 0 mm 3 m/s 749 mmHg 61%
21:00 +24°C° 0 mm 3 m/s 749 mmHg 62%
22:00 +22°C° 0 mm 3 m/s 749 mmHg 63%
23:00 +22°C° 0.1 mm 3 m/s 749 mmHg 66%

Amanhã, 26 Julho, Segunda-feira

Tempo Temperatura Precipitação Vento Pressão Humidade
00:00 +22°C° 0.1 mm 4 m/s 749 mmHg 68%
01:00 +21°C° 0.1 mm 4 m/s 749 mmHg 71%
02:00 +21°C° 0 mm 4 m/s 749 mmHg 72%
03:00 +21°C° 0 mm 4 m/s 748 mmHg 72%
04:00 +21°C° 0 mm 5 m/s 748 mmHg 72%
05:00 +22°C° 0 mm 5 m/s 748 mmHg 69%
06:00 +23°C° 0 mm 5 m/s 748 mmHg 66%
07:00 +23°C° 0 mm 5 m/s 748 mmHg 64%
08:00 +25°C° 0 mm 5 m/s 748 mmHg 61%
09:00 +26°C° 0 mm 5 m/s 748 mmHg 58%
10:00 +27°C° 0 mm 5 m/s 749 mmHg 56%
11:00 +28°C° 0 mm 5 m/s 748 mmHg 54%
12:00 +29°C° 0 mm 5 m/s 748 mmHg 52%
13:00 +30°C° 0 mm 5 m/s 748 mmHg 50%
14:00 +29°C° 0.1 mm 4 m/s 748 mmHg 53%
15:00 +29°C° 0.1 mm 3 m/s 748 mmHg 57%
16:00 +28°C° 0.1 mm 2 m/s 747 mmHg 60%
17:00 +26°C° 2 mm 3 m/s 747 mmHg 70%
18:00 +24°C° 2 mm 3 m/s 747 mmHg 80%
19:00 +22°C° 2 mm 3 m/s 747 mmHg 91%
20:00 +21°C° 2.9 mm 3 m/s 747 mmHg 93%
21:00 +21°C° 2.9 mm 3 m/s 747 mmHg 94%
22:00 +20°C° 2.9 mm 3 m/s 747 mmHg 96%
23:00 +20°C° 0.1 mm 3 m/s 747 mmHg 96%

Depois de amanhã, 27 Julho, Terça-feira

Tempo Temperatura Precipitação Vento Pressão Humidade
00:00 +20°C° 0.1 mm 2 m/s 747 mmHg 96%
01:00 +19°C° 0.1 mm 2 m/s 747 mmHg 96%
02:00 +19°C° 0 mm 2 m/s 747 mmHg 95%
03:00 +19°C° 0 mm 2 m/s 747 mmHg 95%
04:00 +19°C° 0 mm 2 m/s 747 mmHg 94%
05:00 +20°C° 0 mm 2 m/s 748 mmHg 89%
06:00 +21°C° 0 mm 2 m/s 748 mmHg 85%
07:00 +24°C° 0 mm 3 m/s 748 mmHg 80%
08:00 +25°C° 0.1 mm 3 m/s 748 mmHg 75%
09:00 +26°C° 0.1 mm 3 m/s 748 mmHg 71%
10:00 +27°C° 0.1 mm 3 m/s 748 mmHg 66%
11:00 +27°C° 0.4 mm 3 m/s 748 mmHg 65%
12:00 +28°C° 0.4 mm 3 m/s 749 mmHg 63%
13:00 +28°C° 0.4 mm 3 m/s 749 mmHg 62%
14:00 +29°C° 0 mm 3 m/s 749 mmHg 59%
15:00 +29°C° 0 mm 3 m/s 749 mmHg 55%
16:00 +30°C° 0 mm 3 m/s 748 mmHg 51%
17:00 +28°C° 0.2 mm 3 m/s 748 mmHg 59%
18:00 +27°C° 0.2 mm 3 m/s 748 mmHg 67%
19:00 +25°C° 0.2 mm 3 m/s 748 mmHg 75%
20:00 +24°C° 0.3 mm 3 m/s 749 mmHg 77%
21:00 +23°C° 0.3 mm 2 m/s 749 mmHg 79%
22:00 +21°C° 0.3 mm 2 m/s 749 mmHg 80%
23:00 +21°C° 0 mm 2 m/s 749 mmHg 81%

28 Julho, Quarta-feira

Tempo Temperatura Precipitação Vento Pressão Humidade
00:00 +20°C° 0 mm 2 m/s 749 mmHg 82%
01:00 +20°C° 0 mm 2 m/s 749 mmHg 83%
02:00 +20°C° 0 mm 2 m/s 749 mmHg 83%
03:00 +20°C° 0 mm 2 m/s 749 mmHg 83%
04:00 +20°C° 0 mm 2 m/s 749 mmHg 83%
05:00 +21°C° 0 mm 2 m/s 749 mmHg 78%
06:00 +23°C° 0 mm 2 m/s 749 mmHg 73%
07:00 +25°C° 0 mm 2 m/s 749 mmHg 69%
08:00 +26°C° 0 mm 2 m/s 749 mmHg 62%
09:00 +28°C° 0 mm 3 m/s 749 mmHg 55%
10:00 +29°C° 0 mm 3 m/s 749 mmHg 48%
11:00 +30°C° 0 mm 3 m/s 749 mmHg 46%
12:00 +30°C° 0 mm 2 m/s 749 mmHg 44%
13:00 +31°C° 0 mm 2 m/s 749 mmHg 43%
14:00 +30°C° 0 mm 2 m/s 749 mmHg 46%
15:00 +30°C° 0 mm 2 m/s 748 mmHg 49%
16:00 +29°C° 0 mm 2 m/s 748 mmHg 52%
17:00 +28°C° 0 mm 2 m/s 748 mmHg 55%
18:00 +27°C° 0 mm 2 m/s 748 mmHg 58%
19:00 +26°C° 0 mm 2 m/s 748 mmHg 61%
20:00 +25°C° 0.2 mm 3 m/s 748 mmHg 66%
21:00 +24°C° 0.2 mm 3 m/s 749 mmHg 72%
22:00 +21°C° 0.2 mm 3 m/s 749 mmHg 77%
23:00 +20°C° 0.3 mm 3 m/s 749 mmHg 82%

29 Julho, Quinta-feira

Tempo Temperatura Precipitação Vento Pressão Humidade
00:00 +20°C° 0.3 mm 3 m/s 749 mmHg 86%
01:00 +19°C° 0.3 mm 3 m/s 749 mmHg 90%
02:00 +19°C° 0.3 mm 3 m/s 749 mmHg 91%
03:00 +18°C° 0.3 mm 3 m/s 750 mmHg 93%
04:00 +18°C° 0.3 mm 3 m/s 750 mmHg 94%
05:00 +19°C° 0 mm 3 m/s 750 mmHg 92%
06:00 +19°C° 0 mm 3 m/s 750 mmHg 89%
07:00 +20°C° 0 mm 3 m/s 750 mmHg 86%
08:00 +21°C° 0 mm 3 m/s 750 mmHg 79%
09:00 +24°C° 0 mm 3 m/s 750 mmHg 71%
10:00 +25°C° 0 mm 3 m/s 751 mmHg 64%
11:00 +26°C° 0 mm 2 m/s 750 mmHg 58%
12:00 +27°C° 0 mm 2 m/s 750 mmHg 53%
13:00 +28°C° 0 mm 2 m/s 750 mmHg 48%
14:00 +28°C° 0 mm 2 m/s 750 mmHg 48%
15:00 +28°C° 0 mm 2 m/s 750 mmHg 49%
16:00 +28°C° 0 mm 2 m/s 749 mmHg 49%
17:00 +27°C° 0 mm 2 m/s 749 mmHg 52%
18:00 +26°C° 0 mm 1 m/s 749 mmHg 55%
19:00 +25°C° 0 mm 1 m/s 749 mmHg 58%
20:00 +24°C° 0 mm 1 m/s 749 mmHg 58%
21:00 +24°C° 0 mm 1 m/s 749 mmHg 58%
22:00 +23°C° 0 mm 1 m/s 749 mmHg 58%
23:00 +23°C° 0 mm 1 m/s 749 mmHg 61%

30 Julho, Sexta-feira

Tempo Temperatura Precipitação Vento Pressão Humidade
00:00 +21°C° 0 mm 2 m/s 749 mmHg 63%
01:00 +21°C° 0 mm 3 m/s 749 mmHg 66%
02:00 +20°C° 0 mm 3 m/s 749 mmHg 70%
03:00 +20°C° 0 mm 3 m/s 748 mmHg 74%
04:00 +19°C° 0 mm 3 m/s 748 mmHg 79%
05:00 +21°C° 0 mm 3 m/s 748 mmHg 74%
06:00 +22°C° 0 mm 3 m/s 748 mmHg 69%
07:00 +25°C° 0 mm 3 m/s 748 mmHg 64%
08:00 +26°C° 0 mm 4 m/s 748 mmHg 58%
09:00 +28°C° 0 mm 4 m/s 748 mmHg 52%
10:00 +30°C° 0 mm 5 m/s 747 mmHg 45%
11:00 +32°C° 0 mm 5 m/s 747 mmHg 43%
12:00 +33°C° 0 mm 5 m/s 746 mmHg 41%
13:00 +34°C° 0 mm 5 m/s 746 mmHg 39%
14:00 +33°C° 0 mm 4 m/s 745 mmHg 41%
15:00 +33°C° 0 mm 4 m/s 745 mmHg 43%
16:00 +32°C° 0 mm 4 m/s 744 mmHg 46%
17:00 +30°C° 0 mm 3 m/s 744 mmHg 52%
18:00 +28°C° 0 mm 3 m/s 744 mmHg 59%
19:00 +27°C° 0 mm 3 m/s 744 mmHg 65%
20:00 +25°C° 1.3 mm 3 m/s 744 mmHg 74%
21:00 +24°C° 1.3 mm 3 m/s 745 mmHg 82%
22:00 +23°C° 1.3 mm 2 m/s 745 mmHg 90%
23:00 +21°C° 0.6 mm 2 m/s 745 mmHg 91%
Mostrar mais

Necessitamos do seu Consentimento

A Meteoprog e os seus Fornecedores de Serviços podem armazenar e aceder a dados pessoais como cookies, identificadores do dispositivo ou outras tecnologias semelhantes existentes no seu dispositivo e processar estes dados para personalizar conteúdos e anúncios, assim como funcionalidades nas redes sociais e análise de tráfego.

  • Armazenar e/ou aceder a informações no seu dispositivo

    Os cookies, identificadores do dispositivo ou outras informações podem ser armazenados ou acedidos no seu dispositivo, para os fins acima indicados.

  • Anúncios e conteúdos personalizados, medição de anúncios e conteúdos, dados sobre o público-alvo e desenvolvimento de produtos

    Os anúncios e os conteúdos podem ser personalizados com base num perfil. Podem ser adicionados dados adicionais para uma maior personalização dos anúncios e dos conteúdos. A eficácia dos anúncios e dos conteúdos pode ser medida. Podem ser obtidas informações sobre o público que visualizou os anúncios e os conteúdos. Estes dados podem ser usados para desenvolver ou melhorar sistemas, softwares ou a experiência do utilizador.

Ao clicar em "Eu concordo”, permitirá o uso de cookies, identificadores do dispositivo e web beacons mencionados ou outras tecnologias semelhantes. As configurações do navegador do seu dispositivo podem ser alteradas.

Para certos fins, podem ser invocados interesses legítimos ao invés de consentimento. Pode ler mais informação sobre este assunto na nossa Política de Privacidade e Cookies.